Time,TemperatureF,DewpointF,PressureIn,WindDirection,WindDirectionDegrees,WindSpeedMPH,WindSpeedGustMPH,Humidity,HourlyPrecipIn,Conditions,Clouds,dailyrainin,SolarRadiationWatts/m^2,SoftwareType,DateUTC
2013-03-27 00:02:00,33.0,33.0,-100.00,ESE,117,1.0,2.0,100,0.00,,,0.00,0.000000,,2013-03-27 07:02:00,
2013-03-27 00:32:00,33.0,33.0,-100.00,ENE,68,1.0,3.0,100,0.00,,,0.00,0.000000,,2013-03-27 07:32:00,
2013-03-27 00:43:00,33.0,33.0,-100.00,ENE,68,1.0,3.0,100,0.00,,,0.00,0.000000,,2013-03-27 07:43:00,
2013-03-27 00:53:00,33.0,33.0,-100.00,ENE,68,1.0,3.0,100,0.00,,,0.00,0.000000,,2013-03-27 07:53:00,
2013-03-27 01:02:00,33.0,33.0,-100.00,ENE,68,1.0,3.0,100,0.00,,,0.00,0.000000,,2013-03-27 08:02:00,
2013-03-27 01:32:00,33.0,33.0,-100.00,WNW,283,1.0,5.0,100,0.00,,,0.00,0.000000,,2013-03-27 08:32:00,
2013-03-27 01:43:00,33.0,33.0,-100.00,WNW,283,1.0,5.0,100,0.00,,,0.00,0.000000,,2013-03-27 08:43:00,
2013-03-27 01:52:00,33.0,33.0,-100.00,WNW,283,1.0,5.0,100,0.00,,,0.00,0.000000,,2013-03-27 08:52:00,
2013-03-27 02:01:00,33.0,33.0,-100.00,WNW,283,1.0,5.0,100,0.00,,,0.00,0.000000,,2013-03-27 09:01:00,
2013-03-27 02:33:00,33.0,33.0,-100.00,NW,306,1.0,3.0,100,0.00,,,0.00,0.000000,,2013-03-27 09:33:00,
2013-03-27 02:42:00,33.0,33.0,-100.00,NW,306,1.0,3.0,100,0.00,,,0.00,0.000000,,2013-03-27 09:42:00,
2013-03-27 02:52:00,33.0,33.0,-100.00,NW,306,1.0,3.0,100,0.00,,,0.00,0.000000,,2013-03-27 09:52:00,
2013-03-27 03:02:00,33.0,33.0,-100.00,NW,306,1.0,3.0,100,0.00,,,0.00,0.000000,,2013-03-27 10:02:00,
2013-03-27 03:32:00,34.0,34.0,-100.00,NW,322,1.0,6.0,100,0.00,,,0.00,0.000000,,2013-03-27 10:32:00,
2013-03-27 03:42:00,34.0,34.0,-100.00,NW,322,1.0,6.0,100,0.00,,,0.00,0.000000,,2013-03-27 10:42:00,
2013-03-27 03:52:00,34.0,34.0,-100.00,NW,322,1.0,6.0,100,0.00,,,0.00,0.000000,,2013-03-27 10:52:00,
2013-03-27 04:02:00,34.0,34.0,-100.00,NW,322,1.0,6.0,100,0.00,,,0.00,0.000000,,2013-03-27 11:02:00,
2013-03-27 04:32:00,34.0,34.0,-100.00,East,91,1.0,6.0,100,0.00,,,0.00,0.000000,,2013-03-27 11:32:00,
2013-03-27 04:42:00,34.0,34.0,-100.00,East,91,1.0,6.0,100,0.00,,,0.00,0.000000,,2013-03-27 11:42:00,
2013-03-27 04:52:00,34.0,34.0,-100.00,East,91,1.0,6.0,100,0.00,,,0.00,0.000000,,2013-03-27 11:52:00,
2013-03-27 05:02:00,34.0,34.0,-100.00,East,91,1.0,6.0,100,0.00,,,0.00,0.000000,,2013-03-27 12:02:00,
2013-03-27 05:32:00,32.0,32.0,-100.00,SW,220,1.0,5.0,100,0.00,,,0.00,0.000000,,2013-03-27 12:32:00,
2013-03-27 05:43:00,32.0,32.0,-100.00,SW,220,1.0,5.0,100,0.00,,,0.00,0.000000,,2013-03-27 12:43:00,
2013-03-27 05:52:00,32.0,32.0,-100.00,SW,220,1.0,5.0,100,0.00,,,0.00,0.000000,,2013-03-27 12:52:00,
2013-03-27 06:02:00,32.0,32.0,-100.00,SW,220,1.0,5.0,100,0.00,,,0.00,0.000000,,2013-03-27 13:02:00,
2013-03-27 06:33:00,33.0,33.0,-100.00,NNW,334,1.0,3.0,100,-99.99,,,0.00,0.000000,,2013-03-27 13:33:00,
2013-03-27 06:42:00,33.0,33.0,-100.00,NNW,334,1.0,3.0,100,-99.99,,,0.00,0.000000,,2013-03-27 13:42:00,
2013-03-27 06:53:00,33.0,33.0,-100.00,NNW,334,1.0,3.0,100,-99.99,,,0.00,0.000000,,2013-03-27 13:53:00,
2013-03-27 07:02:00,33.0,33.0,-100.00,NNW,334,1.0,3.0,100,-99.99,,,0.00,0.000000,,2013-03-27 14:02:00,
2013-03-27 07:32:00,33.0,33.0,-100.00,NW,323,1.0,4.0,100,0.00,,,0.00,2.000000,,2013-03-27 14:32:00,
2013-03-27 07:42:00,33.0,33.0,-100.00,NW,323,1.0,4.0,100,0.00,,,0.00,2.000000,,2013-03-27 14:42:00,
2013-03-27 07:52:00,33.0,33.0,-100.00,NW,323,1.0,4.0,100,0.00,,,0.00,2.000000,,2013-03-27 14:52:00,
2013-03-27 08:02:00,33.0,33.0,-100.00,NW,323,1.0,4.0,100,0.00,,,0.00,2.000000,,2013-03-27 15:02:00,
2013-03-27 08:33:00,33.0,33.0,-100.00,NE,54,1.0,5.0,100,0.00,,,0.00,33.000000,,2013-03-27 15:33:00,
2013-03-27 08:43:00,33.0,33.0,-100.00,NE,54,1.0,5.0,100,0.00,,,0.00,33.000000,,2013-03-27 15:43:00,
2013-03-27 08:52:00,33.0,33.0,-100.00,NE,54,1.0,5.0,100,0.00,,,0.00,33.000000,,2013-03-27 15:52:00,
2013-03-27 09:02:00,33.0,33.0,-100.00,NE,54,1.0,5.0,100,0.00,,,0.00,33.000000,,2013-03-27 16:02:00,
2013-03-27 11:33:00,48.0,40.0,-100.00,West,279,0.0,3.0,74,-99.99,,,-99.99,201.000000,,2013-03-27 18:33:00,
2013-03-27 11:42:00,48.0,40.0,-100.00,West,279,0.0,3.0,74,-99.99,,,-99.99,201.000000,,2013-03-27 18:42:00,
2013-03-27 11:53:00,48.0,40.0,-100.00,West,279,0.0,3.0,74,-99.99,,,-99.99,201.000000,,2013-03-27 18:53:00,
2013-03-27 12:02:00,48.0,40.0,-100.00,West,279,0.0,3.0,74,-99.99,,,-99.99,201.000000,,2013-03-27 19:02:00,
2013-03-27 12:42:00,48.0,38.0,-100.00,North,356,0.0,3.0,69,0.00,,,0.00,213.000000,,2013-03-27 19:42:00,
2013-03-27 12:52:00,48.0,38.0,-100.00,North,356,0.0,3.0,69,0.00,,,0.00,213.000000,,2013-03-27 19:52:00,
2013-03-27 13:02:00,48.0,38.0,-100.00,North,356,0.0,3.0,69,0.00,,,0.00,213.000000,,2013-03-27 20:02:00,
2013-03-27 13:32:00,48.0,38.0,-100.00,NE,39,1.0,5.0,68,0.00,,,0.00,264.000000,,2013-03-27 20:32:00,
2013-03-27 13:43:00,48.0,38.0,-100.00,NE,39,1.0,5.0,68,0.00,,,0.00,264.000000,,2013-03-27 20:43:00,
2013-03-27 13:52:00,48.0,38.0,-100.00,NE,39,1.0,5.0,68,0.00,,,0.00,264.000000,,2013-03-27 20:52:00,
2013-03-27 14:02:00,48.0,38.0,-100.00,NE,39,1.0,5.0,68,0.00,,,0.00,264.000000,,2013-03-27 21:02:00,
2013-03-27 14:32:00,55.0,38.0,-100.00,NE,40,2.0,7.0,53,0.00,,,0.00,390.000000,,2013-03-27 21:32:00,
2013-03-27 14:43:00,55.0,38.0,-100.00,NE,40,2.0,7.0,53,0.00,,,0.00,390.000000,,2013-03-27 21:43:00,
2013-03-27 14:52:00,55.0,38.0,-100.00,NE,40,2.0,7.0,53,0.00,,,0.00,390.000000,,2013-03-27 21:52:00,
2013-03-27 15:02:00,55.0,38.0,-100.00,NE,40,2.0,7.0,53,0.00,,,0.00,390.000000,,2013-03-27 22:02:00,
2013-03-27 15:33:00,52.0,39.0,-100.00,SSE,151,1.0,7.0,61,0.00,,,0.00,267.000000,,2013-03-27 22:33:00,
2013-03-27 15:42:00,52.0,39.0,-100.00,SSE,151,1.0,7.0,61,0.00,,,0.00,267.000000,,2013-03-27 22:42:00,
2013-03-27 15:52:00,52.0,39.0,-100.00,SSE,151,1.0,7.0,61,0.00,,,0.00,267.000000,,2013-03-27 22:52:00,
2013-03-27 16:02:00,52.0,39.0,-100.00,SSE,151,1.0,7.0,61,0.00,,,0.00,267.000000,,2013-03-27 23:02:00,
2013-03-27 16:32:00,49.0,41.0,-100.00,ENE,64,1.0,5.0,74,0.00,,,0.00,160.000000,,2013-03-27 23:32:00,
2013-03-27 16:42:00,49.0,41.0,-100.00,ENE,64,1.0,5.0,74,0.00,,,0.00,160.000000,,2013-03-27 23:42:00,
2013-03-27 16:52:00,49.0,41.0,-100.00,ENE,64,1.0,5.0,74,0.00,,,0.00,160.000000,,2013-03-27 23:52:00,
2013-03-27 17:02:00,49.0,41.0,-100.00,ENE,64,1.0,5.0,74,0.00,,,0.00,160.000000,,2013-03-28 00:02:00,